• In Deutschland
  • Länderverzeichnis
  • Für 7 Tage
  • Wassertemperatur
  • Satellitenkarten
  • Wetterkarte
  • Widgets
  • user-avatar
    Anmelden

    Stündliche Wetter Lüdenscheid

    Heute, 17 Oktober, Dienstag

    Zeit Temperatur Niederschläge Wind Luftdruck Luftfeuchtigkeit
    00:00 +13°C° 0 mm 3 m/S 731 mmHg 72%
    01:00 +14°C° 0 mm 2 m/S 731 mmHg 73%
    02:00 +13°C° 0 mm 2 m/S 730 mmHg 75%
    03:00 +13°C° 0 mm 2 m/S 730 mmHg 77%
    04:00 +13°C° 0 mm 2 m/S 730 mmHg 79%
    05:00 +12°C° 0 mm 2 m/S 730 mmHg 81%
    06:00 +12°C° 0 mm 2 m/S 730 mmHg 83%
    07:00 +12°C° 0 mm 1 m/S 730 mmHg 86%
    08:00 +13°C° 0 mm 1 m/S 731 mmHg 81%
    09:00 +15°C° 0 mm 1 m/S 731 mmHg 77%
    10:00 +16°C° 0 mm 1 m/S 731 mmHg 73%
    11:00 +19°C° 0 mm 1 m/S 731 mmHg 70%
    12:00 +20°C° 0 mm 1 m/S 731 mmHg 67%
    13:00 +21°C° 0 mm 1 m/S 731 mmHg 64%
    14:00 +21°C° 0 mm 1 m/S 730 mmHg 66%
    15:00 +20°C° 0 mm 1 m/S 730 mmHg 68%
    16:00 +20°C° 0 mm 1 m/S 729 mmHg 69%
    17:00 +19°C° 0 mm 1 m/S 729 mmHg 74%
    18:00 +15°C° 0 mm 0 m/S 729 mmHg 79%
    19:00 +14°C° 0 mm 0 m/S 729 mmHg 84%
    20:00 +13°C° 0 mm 0 m/S 728 mmHg 86%
    21:00 +14°C° 0 mm 1 m/S 728 mmHg 87%
    22:00 +14°C° 0 mm 1 m/S 728 mmHg 88%
    23:00 +13°C° 0 mm 1 m/S 728 mmHg 89%

    Morgen, 18 Oktober, Mittwoch

    Zeit Temperatur Niederschläge Wind Luftdruck Luftfeuchtigkeit
    00:00 +13°C° 0 mm 1 m/S 727 mmHg 89%
    01:00 +13°C° 0 mm 1 m/S 727 mmHg 90%
    02:00 +12°C° 0 mm 1 m/S 727 mmHg 90%
    03:00 +12°C° 0 mm 1 m/S 726 mmHg 91%
    04:00 +12°C° 0 mm 1 m/S 726 mmHg 91%
    05:00 +11°C° 0 mm 1 m/S 726 mmHg 91%
    06:00 +11°C° 0 mm 1 m/S 726 mmHg 90%
    07:00 +11°C° 0 mm 1 m/S 726 mmHg 90%
    08:00 +12°C° 0 mm 1 m/S 726 mmHg 82%
    09:00 +14°C° 0 mm 2 m/S 726 mmHg 75%
    10:00 +15°C° 0 mm 2 m/S 726 mmHg 68%
    11:00 +16°C° 0 mm 2 m/S 726 mmHg 63%
    12:00 +18°C° 0 mm 2 m/S 725 mmHg 58%
    13:00 +19°C° 0 mm 2 m/S 725 mmHg 52%
    14:00 +19°C° 0 mm 2 m/S 725 mmHg 55%
    15:00 +20°C° 0 mm 1 m/S 725 mmHg 57%
    16:00 +19°C° 0 mm 1 m/S 724 mmHg 60%
    17:00 +18°C° 0 mm 1 m/S 724 mmHg 66%
    18:00 +15°C° 0 mm 1 m/S 724 mmHg 71%
    19:00 +13°C° 0 mm 1 m/S 724 mmHg 77%
    20:00 +13°C° 0 mm 1 m/S 724 mmHg 79%
    21:00 +12°C° 0 mm 1 m/S 724 mmHg 81%
    22:00 +12°C° 0 mm 2 m/S 725 mmHg 83%
    23:00 +12°C° 0 mm 2 m/S 724 mmHg 84%

    übermorgen, 19 Oktober, Donnerstag

    Zeit Temperatur Niederschläge Wind Luftdruck Luftfeuchtigkeit
    00:00 +10°C° 0 mm 2 m/S 724 mmHg 85%
    01:00 +10°C° 0 mm 2 m/S 724 mmHg 85%
    02:00 +10°C° 0 mm 2 m/S 724 mmHg 86%
    03:00 +10°C° 0 mm 2 m/S 724 mmHg 87%
    04:00 +10°C° 0 mm 2 m/S 724 mmHg 88%
    05:00 +10°C° 0 mm 2 m/S 724 mmHg 88%
    06:00 +9°C° 0 mm 2 m/S 723 mmHg 88%
    07:00 +9°C° 0 mm 2 m/S 723 mmHg 88%
    08:00 +12°C° 0 mm 2 m/S 724 mmHg 81%
    09:00 +14°C° 0 mm 2 m/S 724 mmHg 74%
    10:00 +15°C° 0 mm 2 m/S 724 mmHg 66%
    11:00 +17°C° 0 mm 3 m/S 724 mmHg 63%
    12:00 +18°C° 0 mm 3 m/S 724 mmHg 59%
    13:00 +19°C° 0 mm 4 m/S 724 mmHg 56%
    14:00 +19°C° 0 mm 3 m/S 723 mmHg 57%
    15:00 +19°C° 0 mm 3 m/S 723 mmHg 59%
    16:00 +19°C° 0 mm 3 m/S 723 mmHg 60%
    17:00 +18°C° 0 mm 3 m/S 723 mmHg 63%
    18:00 +16°C° 0 mm 3 m/S 722 mmHg 65%
    19:00 +14°C° 0 mm 3 m/S 722 mmHg 68%
    20:00 +14°C° 0 mm 3 m/S 722 mmHg 67%
    21:00 +14°C° 0 mm 3 m/S 722 mmHg 66%
    22:00 +14°C° 0 mm 4 m/S 722 mmHg 65%
    23:00 +14°C° 0 mm 4 m/S 722 mmHg 65%

    20 Oktober, Freitag

    Zeit Temperatur Niederschläge Wind Luftdruck Luftfeuchtigkeit
    00:00 +13°C° 0 mm 4 m/S 722 mmHg 65%
    01:00 +13°C° 0 mm 4 m/S 722 mmHg 66%
    02:00 +13°C° 0,1 mm 4 m/S 721 mmHg 70%
    03:00 +13°C° 0,1 mm 4 m/S 721 mmHg 73%
    04:00 +13°C° 0,1 mm 4 m/S 721 mmHg 77%
    05:00 +13°C° 0,3 mm 5 m/S 721 mmHg 79%
    06:00 +13°C° 0,3 mm 5 m/S 721 mmHg 81%
    07:00 +13°C° 0,3 mm 5 m/S 721 mmHg 83%
    08:00 +13°C° 0,4 mm 6 m/S 722 mmHg 80%
    09:00 +13°C° 0,4 mm 6 m/S 722 mmHg 76%
    10:00 +14°C° 0,4 mm 6 m/S 723 mmHg 73%
    11:00 +14°C° 0 mm 6 m/S 723 mmHg 66%
    12:00 +14°C° 0 mm 7 m/S 723 mmHg 60%
    13:00 +15°C° 0 mm 7 m/S 724 mmHg 54%
    14:00 +14°C° 0 mm 6 m/S 724 mmHg 55%
    15:00 +14°C° 0 mm 5 m/S 724 mmHg 57%
    16:00 +14°C° 0 mm 4 m/S 724 mmHg 58%
    17:00 +13°C° 0 mm 4 m/S 724 mmHg 63%
    18:00 +11°C° 0 mm 3 m/S 724 mmHg 68%
    19:00 +10°C° 0 mm 2 m/S 724 mmHg 72%
    20:00 +10°C° 0 mm 2 m/S 724 mmHg 75%
    21:00 +10°C° 0 mm 2 m/S 724 mmHg 78%
    22:00 +10°C° 0 mm 2 m/S 724 mmHg 82%
    23:00 +10°C° 0 mm 3 m/S 723 mmHg 83%

    21 Oktober, Samstag

    Zeit Temperatur Niederschläge Wind Luftdruck Luftfeuchtigkeit
    00:00 +11°C° 0 mm 3 m/S 723 mmHg 85%
    01:00 +11°C° 0 mm 4 m/S 722 mmHg 87%
    02:00 +12°C° 0 mm 4 m/S 721 mmHg 84%
    03:00 +12°C° 0 mm 4 m/S 721 mmHg 82%
    04:00 +13°C° 0 mm 5 m/S 720 mmHg 79%
    05:00 +13°C° 0,7 mm 5 m/S 720 mmHg 80%
    06:00 +13°C° 0,7 mm 5 m/S 720 mmHg 82%
    07:00 +13°C° 0,7 mm 5 m/S 719 mmHg 83%
    08:00 +13°C° 0,5 mm 5 m/S 719 mmHg 81%
    09:00 +14°C° 0,5 mm 6 m/S 720 mmHg 80%
    10:00 +14°C° 0,5 mm 6 m/S 720 mmHg 78%
    11:00 +14°C° 0 mm 6 m/S 720 mmHg 71%
    12:00 +15°C° 0 mm 7 m/S 720 mmHg 64%
    13:00 +15°C° 0 mm 8 m/S 720 mmHg 57%
    14:00 +15°C° 0,1 mm 7 m/S 720 mmHg 56%
    15:00 +14°C° 0,1 mm 7 m/S 720 mmHg 55%
    16:00 +14°C° 0,1 mm 7 m/S 719 mmHg 55%
    17:00 +11°C° 0 mm 6 m/S 720 mmHg 56%
    18:00 +10°C° 0 mm 6 m/S 720 mmHg 58%
    19:00 +9°C° 0 mm 6 m/S 720 mmHg 59%
    20:00 +9°C° 0 mm 6 m/S 720 mmHg 60%
    21:00 +8°C° 0 mm 6 m/S 720 mmHg 60%
    22:00 +8°C° 0 mm 6 m/S 720 mmHg 60%
    23:00 +8°C° 0 mm 7 m/S 720 mmHg 61%

    22 Oktober, Sonntag

    Zeit Temperatur Niederschläge Wind Luftdruck Luftfeuchtigkeit
    00:00 +6°C° 0 mm 7 m/S 721 mmHg 62%
    01:00 +6°C° 0 mm 7 m/S 721 mmHg 63%
    02:00 +6°C° 0 mm 7 m/S 721 mmHg 63%
    03:00 +6°C° 0 mm 7 m/S 721 mmHg 64%
    04:00 +6°C° 0 mm 7 m/S 720 mmHg 65%
    05:00 +5°C° 0 mm 7 m/S 720 mmHg 66%
    06:00 +5°C° 0 mm 7 m/S 720 mmHg 66%
    07:00 +5°C° 0 mm 7 m/S 720 mmHg 67%
    08:00 +6°C° 0 mm 7 m/S 720 mmHg 65%
    09:00 +6°C° 0 mm 8 m/S 720 mmHg 63%
    10:00 +7°C° 0 mm 8 m/S 721 mmHg 61%
    11:00 +6°C° 0,1 mm 8 m/S 720 mmHg 62%
    12:00 +6°C° 0,1 mm 8 m/S 720 mmHg 64%
    13:00 +6°C° 0,1 mm 8 m/S 720 mmHg 65%
    14:00 +6°C° 0,1 mm 8 m/S 720 mmHg 68%
    15:00 +6°C° 0,1 mm 8 m/S 720 mmHg 70%
    16:00 +6°C° 0,1 mm 7 m/S 720 mmHg 72%
    17:00 +6°C° 0,1 mm 7 m/S 720 mmHg 74%
    18:00 +6°C° 0,1 mm 7 m/S 720 mmHg 76%
    19:00 +6°C° 0,1 mm 7 m/S 720 mmHg 78%
    20:00 +6°C° 0,2 mm 7 m/S 721 mmHg 79%
    21:00 +6°C° 0,2 mm 7 m/S 721 mmHg 80%
    22:00 +6°C° 0,2 mm 7 m/S 721 mmHg 81%
    23:00 +6°C° 0,4 mm 7 m/S 721 mmHg 82%
    Mehr zeigen